AMQ124 EPKT-LTAI

Flight info

Callsign AMQ124
Flight time 2h 50m
Altitude 35000
Route REGTO DCT RAZEC DCT KEKED DCT UPAMA DCT ADORU UG80 EKI UL606 CRD UL854 KOZLU
Aircraft A320/M-SDE3FGHIRWY/LB1

Departure

Time 2026-05-07 13:10
Airport Katowice Wojciech Korfanty International Airport (EPKT)

Arrival

Time 2026-05-07 16:00
Airport Antalya International Airport (LTAI)
Time Latitude Longitude Altitude Speed Heading
2026-05-07 12:45 50.47171 19.07213 985 ft 0 kts 182°
2026-05-07 13:01 50.47185 19.07213 989 ft 3 kts 177°
2026-05-07 13:01 50.47205 19.07209 993 ft 3 kts 163°
2026-05-07 13:02 50.47223 19.07198 990 ft 3 kts 139°
2026-05-07 13:02 50.47234 19.07177 988 ft 2 kts 97°
2026-05-07 13:02 50.47235 19.07164 989 ft 1 kts 90°
2026-05-07 13:02 50.47235 19.07163 989 ft 0 kts 90°
2026-05-07 13:05 50.47234 19.07187 992 ft 11 kts 90°
2026-05-07 13:05 50.47233 19.07330 992 ft 12 kts 90°
2026-05-07 13:05 50.47233 19.07447 993 ft 10 kts 90°
2026-05-07 13:05 50.47233 19.07619 994 ft 22 kts 90°
2026-05-07 13:06 50.47235 19.07870 990 ft 23 kts 89°
2026-05-07 13:06 50.47237 19.08125 992 ft 23 kts 90°
2026-05-07 13:06 50.47236 19.08380 994 ft 24 kts 91°
2026-05-07 13:06 50.47235 19.08551 996 ft 24 kts 90°
2026-05-07 13:07 50.47233 19.08810 999 ft 24 kts 91°
2026-05-07 13:07 50.47230 19.09067 1002 ft 22 kts 90°
2026-05-07 13:07 50.47233 19.09264 1001 ft 17 kts 92°
2026-05-07 13:07 50.47281 19.09388 1002 ft 14 kts
2026-05-07 13:08 50.47397 19.09393 1002 ft 17 kts
2026-05-07 13:08 50.47549 19.09394 1003 ft 13 kts 353°
2026-05-07 13:08 50.47597 19.09345 1003 ft 13 kts 297°
2026-05-07 13:08 50.47601 19.09219 1004 ft 0 kts 270°
2026-05-07 13:09 50.47601 19.09124 1003 ft 37 kts 270°
2026-05-07 13:09 50.47602 19.08333 991 ft 104 kts 270°
2026-05-07 13:09 50.47602 19.06888 982 ft 158 kts 270°
2026-05-07 13:10 50.47594 19.05066 1447 ft 163 kts 269°
2026-05-07 13:10 50.47567 19.03276 2154 ft 166 kts 270°
2026-05-07 13:10 50.47563 19.01481 2818 ft 167 kts 268°
2026-05-07 13:10 50.47531 18.99544 3114 ft 188 kts 269°
2026-05-07 13:11 50.47540 18.97398 3429 ft 206 kts 269°
2026-05-07 13:11 50.47411 18.95073 3766 ft 223 kts 249°
2026-05-07 13:11 50.46398 18.93171 4150 ft 242 kts 211°
2026-05-07 13:11 50.44696 18.92588 4609 ft 263 kts 179°
2026-05-07 13:12 50.42857 18.92949 5482 ft 265 kts 176°
2026-05-07 13:12 50.41024 18.93289 6382 ft 267 kts 177°
2026-05-07 13:12 50.39156 18.93520 7158 ft 270 kts 179°
2026-05-07 13:12 50.37272 18.93651 7978 ft 272 kts 181°
2026-05-07 13:13 50.35374 18.93718 8812 ft 273 kts 182°
2026-05-07 13:13 50.33461 18.93747 9640 ft 275 kts 183°
2026-05-07 13:13 50.31543 18.94025 10389 ft 282 kts 169°
2026-05-07 13:13 50.29735 18.95281 11134 ft 290 kts 149°
2026-05-07 13:14 50.28240 18.97509 11474 ft 317 kts 128°
2026-05-07 13:14 50.27188 19.00706 11640 ft 344 kts 117°
2026-05-07 13:14 50.26178 19.04218 11892 ft 362 kts 117°
2026-05-07 13:14 50.25138 19.07841 12489 ft 368 kts 117°
2026-05-07 13:15 50.24080 19.11505 13192 ft 371 kts 118°
2026-05-07 13:15 50.23007 19.15188 13893 ft 373 kts 118°
2026-05-07 13:15 50.21919 19.18885 14482 ft 377 kts 118°
2026-05-07 13:15 50.20811 19.22610 15066 ft 380 kts 118°
2026-05-07 13:16 50.19683 19.26382 15634 ft 385 kts 118°
2026-05-07 13:16 50.18489 19.30129 16196 ft 387 kts 124°
2026-05-07 13:16 50.17118 19.33757 16772 ft 390 kts 124°
2026-05-07 13:16 50.15728 19.37419 17357 ft 394 kts 124°
2026-05-07 13:17 50.14328 19.41105 17933 ft 398 kts 124°
2026-05-07 13:17 50.12911 19.44839 18464 ft 401 kts 124°
2026-05-07 13:17 50.11487 19.48598 18978 ft 404 kts 125°
2026-05-07 13:17 50.10053 19.52376 19491 ft 407 kts 125°
2026-05-07 13:18 50.08591 19.56173 19989 ft 408 kts 128°
2026-05-07 13:18 50.06832 19.59604 20472 ft 405 kts 139°
2026-05-07 13:18 50.04692 19.62410 20975 ft 401 kts 150°
2026-05-07 13:18 50.02267 19.64498 21462 ft 397 kts 161°
2026-05-07 13:19 49.99688 19.65822 21927 ft 395 kts 171°
2026-05-07 13:19 49.97000 19.66734 22410 ft 397 kts 171°
2026-05-07 13:19 49.94295 19.67644 22869 ft 399 kts 171°
2026-05-07 13:19 49.91592 19.68698 23322 ft 404 kts 165°
2026-05-07 13:20 49.89009 19.70491 23722 ft 412 kts 154°
2026-05-07 13:20 49.86653 19.73094 24095 ft 420 kts 143°
2026-05-07 13:20 49.84637 19.76425 24485 ft 428 kts 132°
2026-05-07 13:20 49.82848 19.80131 24848 ft 431 kts 132°
2026-05-07 13:21 49.81050 19.83851 25184 ft 432 kts 131°
2026-05-07 13:21 49.79237 19.87585 25493 ft 436 kts 131°
2026-05-07 13:21 49.77405 19.91342 25806 ft 438 kts 131°
2026-05-07 13:21 49.75567 19.95108 26138 ft 440 kts 131°
2026-05-07 13:22 49.73721 19.98896 26450 ft 442 kts 131°
2026-05-07 13:22 49.71871 20.02690 26779 ft 444 kts 131°
2026-05-07 13:22 49.70007 20.06504 27096 ft 445 kts 132°
2026-05-07 13:22 49.68137 20.10323 27399 ft 447 kts 132°
2026-05-07 13:23 49.66257 20.14159 27682 ft 449 kts 132°
2026-05-07 13:23 49.64366 20.18015 27972 ft 450 kts 132°
2026-05-07 13:23 49.62465 20.21879 28179 ft 453 kts 132°
2026-05-07 13:23 49.60550 20.25762 28406 ft 456 kts 132°
2026-05-07 13:24 49.58624 20.29671 28638 ft 458 kts 132°
2026-05-07 13:24 49.56722 20.33535 28881 ft 459 kts 132°
2026-05-07 13:24 49.54791 20.37454 29198 ft 459 kts 132°
2026-05-07 13:24 49.52864 20.41360 29536 ft 457 kts 132°
2026-05-07 13:25 49.50938 20.45256 29900 ft 457 kts 132°
2026-05-07 13:25 49.49009 20.49148 30189 ft 457 kts 133°
2026-05-07 13:25 49.47082 20.53027 30451 ft 457 kts 133°
2026-05-07 13:25 49.45149 20.56896 30689 ft 457 kts 133°
2026-05-07 13:26 49.43206 20.60768 30965 ft 457 kts 133°
2026-05-07 13:26 49.41264 20.64641 31233 ft 457 kts 133°
2026-05-07 13:26 49.39168 20.68256 31497 ft 451 kts 141°
2026-05-07 13:26 49.36923 20.71621 31781 ft 450 kts 141°
2026-05-07 13:27 49.34692 20.74967 32071 ft 449 kts 141°
2026-05-07 13:27 49.32456 20.78317 32375 ft 448 kts 141°
2026-05-07 13:27 49.30233 20.81640 32660 ft 447 kts 141°
2026-05-07 13:27 49.28034 20.84923 32949 ft 446 kts 141°
2026-05-07 13:28 49.25810 20.88245 33183 ft 447 kts 141°
2026-05-07 13:28 49.23578 20.91572 33400 ft 448 kts 141°
2026-05-07 13:28 49.21347 20.94894 33664 ft 448 kts 141°
2026-05-07 13:28 49.19109 20.98220 33946 ft 447 kts 141°
2026-05-07 13:29 49.16875 21.01529 34197 ft 446 kts 142°
2026-05-07 13:29 49.14620 21.04765 34444 ft 442 kts 146°
2026-05-07 13:29 49.12135 21.07466 34683 ft 435 kts 155°
2026-05-07 13:29 49.09446 21.09489 34892 ft 428 kts 164°
2026-05-07 13:30 49.03743 21.11796 34958 ft 424 kts 172°
2026-05-07 13:30 48.98027 21.13728 34952 ft 425 kts 172°
2026-05-07 13:31 48.92245 21.15689 34962 ft 427 kts 172°
2026-05-07 13:31 48.86444 21.17652 34965 ft 427 kts 172°
2026-05-07 13:32 48.80645 21.19616 34970 ft 427 kts 172°
2026-05-07 13:32 48.74852 21.21577 34977 ft 427 kts 172°
2026-05-07 13:33 48.69053 21.23524 34981 ft 427 kts 172°
2026-05-07 13:33 48.63257 21.25466 34982 ft 426 kts 172°
2026-05-07 13:34 48.54576 21.28401 34953 ft 428 kts 169°
2026-05-07 13:35 48.49098 21.32123 34947 ft 439 kts 153°
2026-05-07 13:35 48.43941 21.36956 34955 ft 440 kts 153°
2026-05-07 13:36 48.38742 21.41809 34958 ft 440 kts 153°
2026-05-07 13:36 48.33542 21.46640 34970 ft 439 kts 153°
2026-05-07 13:37 48.28349 21.51456 34973 ft 439 kts 153°
2026-05-07 13:37 48.23158 21.56266 34996 ft 439 kts 153°
2026-05-07 13:38 48.17960 21.61061 35006 ft 439 kts 154°
2026-05-07 13:38 48.12758 21.65843 35018 ft 439 kts 154°
2026-05-07 13:39 48.07559 21.70623 35031 ft 439 kts 154°
2026-05-07 13:39 48.02362 21.75387 35014 ft 438 kts 154°
2026-05-07 13:40 47.97158 21.80145 35021 ft 438 kts 154°
2026-05-07 13:40 47.91958 21.84882 35029 ft 438 kts 154°
2026-05-07 13:41 47.86794 21.89574 35019 ft 437 kts 154°
2026-05-07 13:41 47.81597 21.94292 35018 ft 437 kts 154°
2026-05-07 13:42 47.76411 21.98999 35019 ft 436 kts 154°
2026-05-07 13:42 47.71225 22.03686 34992 ft 437 kts 154°
2026-05-07 13:43 47.66030 22.08373 34999 ft 437 kts 154°
2026-05-07 13:43 47.60814 22.13050 35004 ft 438 kts 154°
2026-05-07 13:44 47.55593 22.17737 35006 ft 438 kts 154°
2026-05-07 13:44 47.50385 22.22405 35009 ft 437 kts 154°
2026-05-07 13:45 47.45170 22.27065 34997 ft 439 kts 153°
2026-05-07 13:45 47.39934 22.31724 35001 ft 440 kts 153°
2026-05-07 13:46 47.34720 22.36350 35004 ft 441 kts 153°
2026-05-07 13:46 47.29471 22.41006 35008 ft 441 kts 153°
2026-05-07 13:47 47.24212 22.45668 35016 ft 441 kts 153°
2026-05-07 13:47 47.18950 22.50317 35002 ft 442 kts 153°
2026-05-07 13:48 47.13667 22.54957 35008 ft 442 kts 153°
2026-05-07 13:48 47.08380 22.59583 35013 ft 443 kts 153°
2026-05-07 13:49 47.03088 22.64224 35022 ft 443 kts 153°
2026-05-07 13:49 46.97791 22.68859 35025 ft 443 kts 153°
2026-05-07 13:50 46.92476 22.73498 35008 ft 445 kts 153°
2026-05-07 13:50 46.87158 22.78131 35009 ft 445 kts 153°
2026-05-07 13:51 46.81829 22.82752 35017 ft 446 kts 153°
2026-05-07 13:51 46.76496 22.87370 35012 ft 446 kts 153°
2026-05-07 13:52 46.71158 22.91983 35012 ft 446 kts 153°
2026-05-07 13:52 46.65824 22.96584 35023 ft 446 kts 153°
2026-05-07 13:53 46.60520 23.01147 35022 ft 445 kts 154°
2026-05-07 13:53 46.55187 23.05720 35022 ft 445 kts 154°
2026-05-07 13:54 46.49852 23.10283 35029 ft 445 kts 154°
2026-05-07 13:54 46.44519 23.14838 35008 ft 445 kts 153°
2026-05-07 13:55 46.39171 23.19401 35005 ft 446 kts 153°
2026-05-07 13:55 46.33823 23.23950 35010 ft 446 kts 153°
2026-05-07 13:56 46.28465 23.28499 35014 ft 447 kts 153°
2026-05-07 13:56 46.23099 23.33039 35002 ft 447 kts 153°
2026-05-07 13:57 46.17729 23.37571 34991 ft 448 kts 154°
2026-05-07 13:57 46.12382 23.42076 34989 ft 448 kts 154°
2026-05-07 13:58 46.06996 23.46610 34995 ft 448 kts 154°
2026-05-07 13:58 46.01605 23.51139 34992 ft 449 kts 154°
2026-05-07 13:59 45.96206 23.55647 35000 ft 449 kts 154°
2026-05-07 13:59 45.91714 23.59390 34977 ft 450 kts 155°
2026-05-07 14:00 45.86294 23.63905 34989 ft 451 kts 155°
2026-05-07 14:00 45.80850 23.68430 34998 ft 452 kts 155°
2026-05-07 14:01 45.75406 23.72950 35008 ft 453 kts 155°
2026-05-07 14:01 45.69948 23.77471 35008 ft 453 kts 155°
2026-05-07 14:02 45.64493 23.81972 35029 ft 452 kts 155°
2026-05-07 14:02 45.59055 23.86460 35036 ft 451 kts 155°
2026-05-07 14:03 45.53613 23.90931 35047 ft 451 kts 155°
2026-05-07 14:03 45.48182 23.95381 35045 ft 450 kts 155°
2026-05-07 14:04 45.42754 23.99813 35036 ft 450 kts 155°
2026-05-07 14:04 45.37325 24.04251 35050 ft 450 kts 155°
2026-05-07 14:05 45.31901 24.08678 35044 ft 449 kts 155°
2026-05-07 14:05 45.26487 24.13075 35049 ft 448 kts 155°
2026-05-07 14:06 45.21105 24.17438 35045 ft 449 kts 155°
2026-05-07 14:06 45.15671 24.21836 35026 ft 450 kts 155°
2026-05-07 14:07 45.10221 24.26238 35019 ft 451 kts 155°
2026-05-07 14:07 45.04765 24.30639 35022 ft 452 kts 155°
2026-05-07 14:08 44.99294 24.35041 35024 ft 453 kts 155°
2026-05-07 14:08 44.93809 24.39436 35012 ft 453 kts 155°
2026-05-07 14:09 44.88316 24.43825 35018 ft 454 kts 155°
2026-05-07 14:09 44.82821 24.48211 35022 ft 454 kts 155°
2026-05-07 14:10 44.77362 24.52560 35030 ft 454 kts 155°
2026-05-07 14:10 44.71863 24.56934 35028 ft 454 kts 155°
2026-05-07 14:11 44.66363 24.61305 35016 ft 454 kts 155°
2026-05-07 14:11 44.60854 24.65670 35019 ft 454 kts 155°
2026-05-07 14:12 44.55341 24.70019 35025 ft 454 kts 155°
2026-05-07 14:12 44.49830 24.74353 35032 ft 454 kts 155°
2026-05-07 14:13 44.44310 24.78693 35016 ft 455 kts 155°
2026-05-07 14:13 44.38781 24.83031 35010 ft 456 kts 155°
2026-05-07 14:14 44.33281 24.87339 35016 ft 456 kts 155°
2026-05-07 14:14 44.27734 24.91667 35021 ft 456 kts 155°
2026-05-07 14:15 44.22188 24.95992 35016 ft 457 kts 155°
2026-05-07 14:15 44.16636 25.00321 35008 ft 458 kts 155°
2026-05-07 14:16 44.11057 25.04647 35012 ft 458 kts 155°
2026-05-07 14:16 44.05489 25.08954 35018 ft 458 kts 155°
2026-05-07 14:17 43.99914 25.13261 35017 ft 458 kts 155°
2026-05-07 14:17 43.94341 25.17559 35014 ft 459 kts 155°
2026-05-07 14:18 43.88749 25.21866 35009 ft 460 kts 155°
2026-05-07 14:18 43.83191 25.26127 35012 ft 460 kts 155°
2026-05-07 14:19 43.77593 25.30418 35006 ft 460 kts 155°
2026-05-07 14:19 43.71983 25.34709 35000 ft 461 kts 155°
2026-05-07 14:20 43.66357 25.38994 34998 ft 462 kts 155°
2026-05-07 14:20 43.60713 25.43238 35007 ft 461 kts 156°
2026-05-07 14:21 43.55009 25.47137 35011 ft 460 kts 158°
2026-05-07 14:21 43.49231 25.50912 35005 ft 460 kts 158°
2026-05-07 14:22 43.43461 25.54726 35000 ft 461 kts 158°
2026-05-07 14:22 43.37684 25.58605 35000 ft 461 kts 157°
2026-05-07 14:23 43.31915 25.62495 35017 ft 462 kts 157°
2026-05-07 14:23 43.26132 25.66367 35020 ft 462 kts 158°
2026-05-07 14:24 43.20353 25.70207 35029 ft 462 kts 158°
2026-05-07 14:24 43.14574 25.74049 35018 ft 462 kts 158°
2026-05-07 14:25 43.08788 25.77894 35018 ft 463 kts 158°
2026-05-07 14:25 43.03032 25.81718 35018 ft 463 kts 158°
2026-05-07 14:26 42.97236 25.85552 35011 ft 463 kts 158°
2026-05-07 14:26 42.91420 25.89384 35015 ft 464 kts 158°
2026-05-07 14:27 42.85614 25.93199 35036 ft 464 kts 158°
2026-05-07 14:27 42.79801 25.97027 35044 ft 464 kts 158°
2026-05-07 14:28 42.73980 26.00841 35043 ft 465 kts 158°
2026-05-07 14:28 42.68152 26.04646 35034 ft 465 kts 158°
2026-05-07 14:29 42.62329 26.08465 35049 ft 464 kts 158°
2026-05-07 14:29 42.56506 26.12262 35055 ft 464 kts 158°
2026-05-07 14:30 42.50674 26.16044 35045 ft 465 kts 158°
2026-05-07 14:30 42.44837 26.19832 35042 ft 466 kts 158°
2026-05-07 14:31 42.39032 26.23590 35046 ft 465 kts 158°
2026-05-07 14:31 42.33181 26.27367 35048 ft 465 kts 158°
2026-05-07 14:32 42.27330 26.31133 35048 ft 466 kts 158°
2026-05-07 14:32 42.21467 26.34911 35041 ft 467 kts 158°
2026-05-07 14:33 42.15602 26.38684 35048 ft 467 kts 158°
2026-05-07 14:33 42.09731 26.42444 35051 ft 467 kts 158°
2026-05-07 14:34 42.03856 26.46204 35047 ft 468 kts 158°
2026-05-07 14:34 41.97999 26.49943 35043 ft 469 kts 158°
2026-05-07 14:35 41.92097 26.53699 35044 ft 469 kts 158°
2026-05-07 14:35 41.86282 26.57686 35047 ft 472 kts 149°
2026-05-07 14:36 41.80896 26.62777 35055 ft 474 kts 147°
2026-05-07 14:36 41.75505 26.67872 35045 ft 474 kts 147°
2026-05-07 14:37 41.70105 26.72958 35052 ft 474 kts 147°
2026-05-07 14:37 41.62041 26.80544 35061 ft 474 kts 147°
2026-05-07 14:38 41.56637 26.85620 35064 ft 475 kts 147°
2026-05-07 14:38 41.51230 26.90672 35068 ft 475 kts 147°
2026-05-07 14:39 41.45802 26.95740 35065 ft 476 kts 147°
2026-05-07 14:39 41.40378 27.00812 35066 ft 477 kts 147°
2026-05-07 14:40 41.34943 27.05873 35070 ft 477 kts 147°
2026-05-07 14:40 41.29497 27.10929 35071 ft 477 kts 147°
2026-05-07 14:41 41.24053 27.15974 35068 ft 477 kts 147°
2026-05-07 14:41 41.18601 27.21013 35073 ft 478 kts 147°
2026-05-07 14:42 41.13138 27.26053 35078 ft 479 kts 147°
2026-05-07 14:42 41.07661 27.31095 35081 ft 479 kts 147°
2026-05-07 14:43 41.02187 27.36117 35073 ft 479 kts 147°
2026-05-07 14:43 40.96710 27.41141 35081 ft 479 kts 147°
2026-05-07 14:44 40.91123 27.45933 35088 ft 478 kts 152°
2026-05-07 14:44 40.85371 27.50219 35093 ft 478 kts 154°
2026-05-07 14:45 40.79542 27.54433 35095 ft 478 kts 153°
2026-05-07 14:45 40.73751 27.58757 35093 ft 478 kts 153°
2026-05-07 14:46 40.67984 27.63153 35098 ft 479 kts 152°
2026-05-07 14:46 40.62211 27.67529 35096 ft 479 kts 153°
2026-05-07 14:47 40.56435 27.71879 35101 ft 479 kts 153°
2026-05-07 14:47 40.50650 27.76224 35106 ft 479 kts 153°
2026-05-07 14:48 40.44858 27.80555 35104 ft 479 kts 153°
2026-05-07 14:48 40.39065 27.84888 35105 ft 479 kts 153°
2026-05-07 14:49 40.33301 27.89190 35109 ft 479 kts 153°
2026-05-07 14:49 40.27502 27.93499 35099 ft 479 kts 153°
2026-05-07 14:50 40.21712 27.97810 35096 ft 479 kts 153°
2026-05-07 14:50 40.15920 28.02111 35103 ft 479 kts 153°
2026-05-07 14:51 40.10122 28.06400 35109 ft 479 kts 153°
2026-05-07 14:51 40.05303 28.09957 35091 ft 479 kts 153°
2026-05-07 14:52 39.99490 28.14245 35085 ft 480 kts 153°
2026-05-07 14:52 39.93676 28.18523 35092 ft 480 kts 153°
2026-05-07 14:53 39.87854 28.22785 35091 ft 480 kts 153°
2026-05-07 14:53 39.82016 28.27026 35097 ft 480 kts 153°
2026-05-07 14:54 39.76189 28.31259 35098 ft 480 kts 153°
2026-05-07 14:54 39.70348 28.35493 35093 ft 481 kts 154°
2026-05-07 14:55 39.64531 28.39700 35097 ft 482 kts 154°
2026-05-07 14:55 39.58667 28.43934 35109 ft 483 kts 154°
2026-05-07 14:56 39.52783 28.48176 35098 ft 484 kts 153°
2026-05-07 14:56 39.46891 28.52412 35110 ft 485 kts 153°
2026-05-07 14:57 39.40992 28.56648 35127 ft 485 kts 153°
2026-05-07 14:57 39.35088 28.60879 35131 ft 485 kts 153°
2026-05-07 14:58 39.29182 28.65110 35135 ft 485 kts 153°
2026-05-07 14:58 39.23280 28.69322 35147 ft 485 kts 153°
2026-05-07 14:59 39.17359 28.73538 35142 ft 486 kts 153°
2026-05-07 14:59 39.11441 28.77741 35143 ft 486 kts 153°
2026-05-07 15:00 39.05519 28.81945 35144 ft 486 kts 153°
2026-05-07 15:00 38.99602 28.86159 35147 ft 486 kts 153°
2026-05-07 15:01 38.93730 28.90351 35147 ft 486 kts 153°
2026-05-07 15:01 38.87809 28.94554 35148 ft 486 kts 153°
2026-05-07 15:02 38.81881 28.98742 35134 ft 487 kts 153°
2026-05-07 15:02 38.75937 29.02945 35139 ft 488 kts 153°
2026-05-07 15:03 38.69988 29.07150 35138 ft 489 kts 153°
2026-05-07 15:03 38.64024 29.11344 35148 ft 489 kts 153°
2026-05-07 15:04 38.58059 29.15529 35149 ft 489 kts 153°
2026-05-07 15:04 38.52093 29.19727 35142 ft 489 kts 153°
2026-05-07 15:05 38.46125 29.23907 35150 ft 489 kts 153°
2026-05-07 15:05 38.40153 29.28082 35150 ft 490 kts 153°
2026-05-07 15:06 38.34171 29.32264 35142 ft 491 kts 153°
2026-05-07 15:06 38.28218 29.36415 34762 ft 483 kts 153°
2026-05-07 15:07 38.25274 29.38463 34136 ft 482 kts 153°
2026-05-07 15:07 38.22327 29.40511 33364 ft 482 kts 153°
2026-05-07 15:07 38.19379 29.42556 32579 ft 483 kts 153°
2026-05-07 15:07 38.16433 29.44601 31794 ft 484 kts 153°
2026-05-07 15:08 38.13471 29.46652 31010 ft 485 kts 153°
2026-05-07 15:08 38.10499 29.48707 30229 ft 486 kts 153°
2026-05-07 15:08 38.07565 29.50737 29446 ft 486 kts 153°
2026-05-07 15:08 38.04586 29.52797 28570 ft 488 kts 152°
2026-05-07 15:09 38.01652 29.54826 28381 ft 473 kts 152°
2026-05-07 15:09 37.98809 29.56788 28271 ft 462 kts 152°
2026-05-07 15:09 37.93099 29.60714 28068 ft 469 kts 152°
2026-05-07 15:10 37.90233 29.62683 27962 ft 469 kts 152°
2026-05-07 15:10 37.87362 29.64656 27858 ft 469 kts 152°
2026-05-07 15:10 37.84490 29.66628 27752 ft 469 kts 152°
2026-05-07 15:10 37.81628 29.68602 27641 ft 470 kts 150°
2026-05-07 15:11 37.78905 29.70889 27519 ft 470 kts 142°
2026-05-07 15:11 37.76461 29.73614 27416 ft 469 kts 134°
2026-05-07 15:11 37.74167 29.76543 27309 ft 468 kts 134°
2026-05-07 15:11 37.71875 29.79451 27202 ft 466 kts 134°
2026-05-07 15:12 37.69585 29.82345 27096 ft 466 kts 134°
2026-05-07 15:12 37.67288 29.85240 26996 ft 467 kts 134°
2026-05-07 15:12 37.64988 29.88131 26886 ft 467 kts 134°
2026-05-07 15:12 37.62699 29.91026 26783 ft 466 kts 132°
2026-05-07 15:13 37.60762 29.94204 26676 ft 462 kts 118°
2026-05-07 15:13 37.59404 29.97841 26570 ft 457 kts 105°
2026-05-07 15:13 37.58704 30.01708 26464 ft 450 kts 92°
2026-05-07 15:13 37.58650 30.05606 26367 ft 442 kts 80°
2026-05-07 15:14 37.59212 30.09384 26268 ft 434 kts 68°
2026-05-07 15:14 37.60320 30.12884 26180 ft 427 kts 59°
2026-05-07 15:14 37.61588 30.16272 26096 ft 427 kts 59°
2026-05-07 15:14 37.62850 30.19657 26008 ft 427 kts 59°
2026-05-07 15:15 37.64105 30.23045 25913 ft 426 kts 59°
2026-05-07 15:15 37.65353 30.26431 25838 ft 425 kts 60°
2026-05-07 15:15 37.66598 30.29814 25749 ft 425 kts 59°
2026-05-07 15:15 37.67840 30.33189 25666 ft 424 kts 59°
2026-05-07 15:16 37.69083 30.36566 25568 ft 423 kts 59°
2026-05-07 15:16 37.70320 30.39923 25490 ft 422 kts 59°
2026-05-07 15:16 37.71557 30.43288 25402 ft 422 kts 59°
2026-05-07 15:16 37.72792 30.46649 25315 ft 422 kts 59°
2026-05-07 15:17 37.74024 30.50008 25218 ft 421 kts 59°
2026-05-07 15:17 37.75252 30.53360 25134 ft 420 kts 59°
2026-05-07 15:17 37.76479 30.56711 25048 ft 420 kts 59°
2026-05-07 15:17 37.77685 30.60009 24968 ft 419 kts 59°
2026-05-07 15:18 37.78922 30.63392 24881 ft 419 kts 59°
2026-05-07 15:18 37.80143 30.66736 24793 ft 418 kts 59°
2026-05-07 15:18 37.81344 30.70031 24708 ft 417 kts 59°
2026-05-07 15:18 37.82558 30.73365 24620 ft 417 kts 59°
2026-05-07 15:19 37.83768 30.76685 24536 ft 416 kts 59°
2026-05-07 15:19 37.84980 30.80011 24459 ft 416 kts 60°
2026-05-07 15:19 37.86188 30.83335 24372 ft 415 kts 60°
2026-05-07 15:19 37.87391 30.86656 24270 ft 415 kts 60°
2026-05-07 15:20 37.88590 30.89974 24211 ft 414 kts 60°
2026-05-07 15:20 37.89787 30.93289 24125 ft 413 kts 60°
2026-05-07 15:20 37.90982 30.96598 24056 ft 413 kts 59°
2026-05-07 15:20 37.92174 30.99903 23968 ft 412 kts 59°
2026-05-07 15:21 37.93367 31.03203 23891 ft 412 kts 59°
2026-05-07 15:21 37.94559 31.06494 23807 ft 411 kts 59°
2026-05-07 15:21 37.95748 31.09791 23718 ft 411 kts 60°
2026-05-07 15:21 37.96930 31.13080 23618 ft 410 kts 60°
2026-05-07 15:22 37.98098 31.16331 23519 ft 410 kts 60°
2026-05-07 15:22 37.99275 31.19618 23421 ft 409 kts 60°
2026-05-07 15:22 38.00450 31.22900 23333 ft 409 kts 60°
2026-05-07 15:22 38.01622 31.26183 23239 ft 409 kts 60°
2026-05-07 15:23 38.02793 31.29467 23146 ft 408 kts 60°
2026-05-07 15:23 38.03957 31.32738 22975 ft 403 kts 60°
2026-05-07 15:23 38.05090 31.35931 22708 ft 394 kts 60°
2026-05-07 15:23 38.06130 31.39107 22437 ft 389 kts 68°
2026-05-07 15:24 38.06511 31.42498 22170 ft 391 kts 87°
2026-05-07 15:24 38.06038 31.45891 21935 ft 392 kts 106°
2026-05-07 15:24 38.04758 31.48915 21671 ft 390 kts 126°
2026-05-07 15:24 38.02817 31.51271 21411 ft 385 kts 146°
2026-05-07 15:25 38.00437 31.52745 21169 ft 380 kts 165°
2026-05-07 15:25 37.97858 31.53230 20920 ft 373 kts 184°
2026-05-07 15:25 37.95269 31.53081 20676 ft 371 kts 186°
2026-05-07 15:25 37.92697 31.52913 20431 ft 370 kts 186°
2026-05-07 15:26 37.90135 31.52750 20188 ft 368 kts 186°
2026-05-07 15:26 37.87583 31.52590 19938 ft 366 kts 186°
2026-05-07 15:26 37.85046 31.52434 19695 ft 365 kts 186°
2026-05-07 15:26 37.82520 31.52279 19458 ft 363 kts 186°
2026-05-07 15:27 37.80002 31.52121 19220 ft 361 kts 186°
2026-05-07 15:27 37.77529 31.51963 18989 ft 359 kts 186°
2026-05-07 15:27 37.75043 31.51728 18757 ft 357 kts 188°
2026-05-07 15:27 37.72582 31.51400 18527 ft 355 kts 189°
2026-05-07 15:28 37.70137 31.51029 18259 ft 353 kts 190°
2026-05-07 15:28 37.67700 31.50648 17991 ft 351 kts 190°
2026-05-07 15:28 37.65277 31.50279 17729 ft 350 kts 189°
2026-05-07 15:28 37.62868 31.49922 17469 ft 348 kts 189°
2026-05-07 15:29 37.60468 31.49575 17200 ft 346 kts 189°
2026-05-07 15:29 37.58083 31.49236 16937 ft 345 kts 189°
2026-05-07 15:29 37.55704 31.48901 16697 ft 343 kts 189°
2026-05-07 15:29 37.53341 31.48572 16433 ft 341 kts 189°
2026-05-07 15:30 37.50988 31.48248 16175 ft 339 kts 188°
2026-05-07 15:30 37.48641 31.47924 15929 ft 339 kts 188°
2026-05-07 15:30 37.46301 31.47599 15678 ft 337 kts 188°
2026-05-07 15:30 37.44001 31.47278 15437 ft 336 kts 188°
2026-05-07 15:31 37.41678 31.46955 15194 ft 335 kts 188°
2026-05-07 15:31 37.39371 31.46633 14957 ft 333 kts 188°
2026-05-07 15:31 37.37073 31.46313 14714 ft 331 kts 188°
2026-05-07 15:31 37.34788 31.45997 14474 ft 330 kts 188°
2026-05-07 15:32 37.32510 31.45681 14239 ft 328 kts 188°
2026-05-07 15:32 37.30248 31.45366 14066 ft 327 kts 187°
2026-05-07 15:32 37.27989 31.45051 14055 ft 326 kts 187°
2026-05-07 15:32 37.25726 31.44737 13876 ft 326 kts 187°
2026-05-07 15:33 37.23483 31.44426 13610 ft 324 kts 187°
2026-05-07 15:33 37.21246 31.44116 13336 ft 322 kts 187°
2026-05-07 15:33 37.19023 31.43808 13074 ft 321 kts 187°
2026-05-07 15:33 37.16817 31.43440 12898 ft 317 kts 196°
2026-05-07 15:34 37.14796 31.42390 13031 ft 315 kts 215°
2026-05-07 15:34 37.13182 31.40585 13048 ft 310 kts 236°
2026-05-07 15:34 37.12173 31.38280 13045 ft 305 kts 255°
2026-05-07 15:34 37.11821 31.35690 13047 ft 300 kts 273°
2026-05-07 15:35 37.12013 31.33099 13050 ft 299 kts 279°
2026-05-07 15:35 37.12249 31.30504 13049 ft 299 kts 279°
2026-05-07 15:35 37.12481 31.27925 13043 ft 293 kts 279°
2026-05-07 15:35 37.12929 31.25524 13040 ft 274 kts 298°
2026-05-07 15:36 37.14039 31.23696 13038 ft 259 kts 323°
2026-05-07 15:36 37.15609 31.22675 13042 ft 255 kts 347°
2026-05-07 15:36 37.17368 31.22556 13059 ft 255 kts
2026-05-07 15:36 37.19124 31.22802 13043 ft 253 kts
2026-05-07 15:37 37.20874 31.23047 13043 ft 253 kts
2026-05-07 15:37 37.22624 31.23291 13049 ft 253 kts
2026-05-07 15:37 37.24346 31.23529 13052 ft 252 kts
2026-05-07 15:37 37.26095 31.23771 13049 ft 253 kts
2026-05-07 15:38 37.27843 31.24015 13056 ft 253 kts
2026-05-07 15:38 37.29591 31.24260 13059 ft 253 kts
2026-05-07 15:38 37.31339 31.24505 13054 ft 253 kts
2026-05-07 15:38 37.33094 31.24752 13060 ft 254 kts
2026-05-07 15:39 37.34848 31.25001 13063 ft 254 kts
2026-05-07 15:39 37.36605 31.25250 13059 ft 254 kts
2026-05-07 15:39 37.38359 31.25496 13067 ft 254 kts
2026-05-07 15:39 37.40107 31.25739 13071 ft 252 kts
2026-05-07 15:40 37.41853 31.25980 13072 ft 253 kts
2026-05-07 15:40 37.43607 31.26223 13005 ft 255 kts
2026-05-07 15:40 37.45364 31.26470 12747 ft 254 kts
2026-05-07 15:40 37.47111 31.26717 12489 ft 252 kts
2026-05-07 15:41 37.48855 31.26963 12227 ft 251 kts
2026-05-07 15:41 37.50576 31.26830 11980 ft 248 kts 341°
2026-05-07 15:41 37.52049 31.25740 11730 ft 248 kts 315°
2026-05-07 15:41 37.52965 31.23909 11466 ft 251 kts 289°
2026-05-07 15:42 37.53244 31.21752 11224 ft 254 kts 279°
2026-05-07 15:42 37.53428 31.19539 11080 ft 255 kts 275°
2026-05-07 15:42 37.53121 31.17335 11072 ft 261 kts 248°
2026-05-07 15:42 37.52008 31.15516 11075 ft 269 kts 219°
2026-05-07 15:43 37.50307 31.14558 11076 ft 271 kts 190°
2026-05-07 15:43 37.48433 31.14274 11072 ft 273 kts 187°
2026-05-07 15:43 37.46539 31.14019 11064 ft 275 kts 187°
2026-05-07 15:43 37.44629 31.13762 11066 ft 275 kts 187°
2026-05-07 15:44 37.42735 31.13502 11068 ft 274 kts 187°
2026-05-07 15:44 37.40842 31.13240 11068 ft 273 kts 187°
2026-05-07 15:44 37.38951 31.12977 11060 ft 273 kts 187°
2026-05-07 15:44 37.37055 31.12713 11058 ft 274 kts 187°
2026-05-07 15:45 37.35183 31.12453 11058 ft 275 kts 187°
2026-05-07 15:45 37.33286 31.12189 11059 ft 275 kts 187°
2026-05-07 15:45 37.31387 31.11922 11051 ft 274 kts 187°
2026-05-07 15:45 37.29493 31.11652 11050 ft 274 kts 188°
2026-05-07 15:46 37.25738 31.10896 11048 ft 271 kts 205°
2026-05-07 15:46 37.24658 31.10127 11041 ft 269 kts 221°
2026-05-07 15:46 37.23454 31.08387 11043 ft 263 kts 245°
2026-05-07 15:47 37.22911 31.06240 11041 ft 256 kts 269°
2026-05-07 15:47 37.23064 31.04046 11044 ft 253 kts 290°
2026-05-07 15:47 37.23635 31.01971 11039 ft 250 kts 295°
2026-05-07 15:47 37.24576 31.00202 11040 ft 244 kts 318°
2026-05-07 15:48 37.26011 30.99074 11044 ft 246 kts 342°
2026-05-07 15:48 37.27695 30.98803 11040 ft 246 kts
2026-05-07 15:48 37.29403 30.99043 11053 ft 248 kts
2026-05-07 15:48 37.31113 30.99289 11050 ft 247 kts
2026-05-07 15:49 37.32818 30.99531 11044 ft 247 kts
2026-05-07 15:49 37.34536 30.99768 11051 ft 249 kts
2026-05-07 15:49 37.36240 30.99576 11058 ft 246 kts 342°
2026-05-07 15:49 37.37766 30.98621 11060 ft 247 kts 324°
2026-05-07 15:50 37.38980 30.97100 11059 ft 248 kts 307°
2026-05-07 15:50 37.39782 30.95166 10869 ft 252 kts 289°
2026-05-07 15:50 37.40063 30.93019 10524 ft 255 kts 272°
2026-05-07 15:50 37.39761 30.90745 9919 ft 269 kts 251°
2026-05-07 15:51 37.38860 30.88733 9517 ft 266 kts 232°
2026-05-07 15:51 37.37482 30.87196 8943 ft 267 kts 212°
2026-05-07 15:51 37.35765 30.86343 8411 ft 265 kts 191°
2026-05-07 15:51 37.33946 30.86258 7953 ft 263 kts 174°
2026-05-07 15:52 37.32111 30.86479 7469 ft 267 kts 177°
2026-05-07 15:52 37.30245 30.86419 7011 ft 270 kts 188°
2026-05-07 15:52 37.28466 30.85997 7021 ft 251 kts 193°
2026-05-07 15:52 37.26808 30.85559 7043 ft 238 kts 193°
2026-05-07 15:53 37.25193 30.85143 7000 ft 237 kts 193°
2026-05-07 15:53 37.23555 30.84723 6477 ft 246 kts 192°
2026-05-07 15:53 37.21868 30.84289 6131 ft 245 kts 193°
2026-05-07 15:53 37.20225 30.83789 5770 ft 245 kts 200°
2026-05-07 15:54 37.18593 30.83244 5412 ft 239 kts 191°
2026-05-07 15:54 37.16976 30.82963 5100 ft 230 kts 187°
2026-05-07 15:54 37.15422 30.82755 4812 ft 221 kts 186°
2026-05-07 15:54 37.13916 30.82552 4547 ft 215 kts 186°
2026-05-07 15:55 37.12446 30.82350 4245 ft 210 kts 186°
2026-05-07 15:55 37.11009 30.82152 3943 ft 206 kts 186°
2026-05-07 15:55 37.09626 30.81961 3683 ft 200 kts 186°
2026-05-07 15:55 37.08243 30.81770 3429 ft 194 kts 185°
2026-05-07 15:56 37.06936 30.81590 3172 ft 188 kts 186°
2026-05-07 15:56 37.05670 30.81416 2936 ft 178 kts 185°
2026-05-07 15:56 37.04465 30.81250 2710 ft 171 kts 185°
2026-05-07 15:56 37.03297 30.81089 2501 ft 168 kts 185°
2026-05-07 15:57 37.02142 30.80930 2273 ft 166 kts 185°
2026-05-07 15:57 37.00999 30.80773 2051 ft 164 kts 185°
2026-05-07 15:57 36.99870 30.80618 1836 ft 160 kts 186°
2026-05-07 15:57 36.98810 30.80472 1633 ft 148 kts 185°
2026-05-07 15:58 36.97801 30.80334 1434 ft 145 kts 185°
2026-05-07 15:58 36.96803 30.80197 1250 ft 143 kts 185°
2026-05-07 15:58 36.95823 30.80062 1062 ft 142 kts 184°
2026-05-07 15:58 36.94842 30.79927 858 ft 142 kts 184°
2026-05-07 15:59 36.93854 30.79792 678 ft 143 kts 182°
2026-05-07 15:59 36.92877 30.79658 513 ft 140 kts 183°
2026-05-07 15:59 36.91912 30.79533 309 ft 140 kts 184°
2026-05-07 15:59 36.90967 30.79400 189 ft 126 kts 182°
2026-05-07 16:00 36.90255 30.79298 182 ft 78 kts 185°
2026-05-07 16:00 36.89851 30.79251 181 ft 45 kts 185°
2026-05-07 16:00 36.89582 30.79239 179 ft 35 kts 168°
2026-05-07 16:00 36.89473 30.79292 180 ft 0 kts 156°
2026-05-07 16:01 36.89470 30.79294 180 ft 4 kts 156°
2026-05-07 16:02 36.89412 30.79326 180 ft 5 kts 155°
2026-05-07 16:02 36.89391 30.79386 180 ft 12 kts 56°
2026-05-07 16:02 36.89475 30.79411 181 ft 11 kts
2026-05-07 16:02 36.89571 30.79425 181 ft 18 kts
2026-05-07 16:03 36.89628 30.79433 181 ft 9 kts
2026-05-07 16:03 36.89662 30.79470 181 ft 12 kts 63°
2026-05-07 16:03 36.89660 30.79524 181 ft 11 kts 95°
2026-05-07 16:03 36.89653 30.79621 181 ft 7 kts 96°
2026-05-07 16:04 36.89644 30.79714 182 ft 9 kts 97°
2026-05-07 16:04 36.89635 30.79827 182 ft 15 kts 95°
2026-05-07 16:04 36.89628 30.79911 182 ft 12 kts 96°
2026-05-07 16:04 36.89622 30.79985 182 ft 11 kts 90°
2026-05-07 16:05 36.89643 30.80045 182 ft 3 kts 36°
2026-05-07 16:05 36.89672 30.80057 182 ft 10 kts 34°
2026-05-07 16:05 36.89678 30.80063 182 ft 0 kts 34°
2026-05-07 16:05 36.89681 30.80065 182 ft 4 kts 34°
2026-05-07 16:06 36.89697 30.80077 182 ft 2 kts 33°
2026-05-07 16:06 36.89702 30.80081 182 ft 0 kts 29°
2026-05-07 16:11 36.89703 30.80081 182 ft 0 kts 29°